User: anonymous   Login
Location: Weston
(26.1283°N, 80.4075°W)
Time: 03:08:54
(UTC-05:00)
Language:

H-2A R/B - Orbit

View from above orbital plane
View from above orbital plane
View from above satellite
View from above satellite

Ground track
Ground track

The orbit data is extracted from the following two-line orbital elements,

1 26899U 01038B   16338.94297204  .00000478  00000-0  28002-3 0  9998
2 26899  27.9210 144.9938 7114268  58.3938 352.0066  2.47389133131670
Epoch (UTC): 03 December 2016 22:37:52
Eccentricity: 0.7114268
inclination: 27.9210°
perigee height: 286 km
apogee height: 33143 km
right ascension of ascending node: 144.9938°
argument of perigee: 58.3938°
revolutions per day: 2.47389133
mean anomaly at epoch: 352.0066°
orbit number at epoch: 13167

The dashed part of the orbit path shows where the satellite is in the earth's shadow,  

DLR